FW5680 Weather Reports


time (UTC)temp
C
wind
direction
speed
KPH
gust
KPH
rain 1hr
cm
rain 24hr
cm
rain mn
cm
humidity
%
barometer
mb
20260504081505 10 27 25.7 0.0 0.00 0.00 0.00 51 1014.8
20260504044537 15 40 33.8 0.0 0.00 0.00 0.00 36 1009.5
20260504043040 15 38 19.3 0.0 0.00 0.00 0.00 36 1008.8
20260504041532 15 31 17.7 0.0 0.00 0.00 0.00 35 1008.4
20260504040030 15 43 24.1 0.0 0.00 0.00 0.00 35 1008.0
20260504034530 15 27 22.5 0.0 0.00 0.00 0.00 35 1007.7
20260504033029 16 38 22.5 0.0 0.00 0.00 0.00 35 1007.4
20260504031529 16 26 27.4 0.0 0.00 0.00 0.00 34 1007.2
20260504030029 17 31 24.1 0.0 0.00 0.00 0.00 30 1006.8
20260504024529 17 22 17.7 0.0 0.00 0.00 0.00 26 1006.2
20260504023028 18 40 9.7 0.0 0.00 0.00 0.00 23 1006.0
20260504021532 20 35 12.9 0.0 0.00 0.00 0.00 22 1005.9
20260504020035 21 14 17.7 0.0 0.00 0.00 0.00 21 1006.0
20260504014534 21 360 17.7 0.0 0.00 0.00 0.00 20 1006.1
20260504013025 22 360 20.9 0.0 0.00 0.00 0.00 20 1006.1
20260504011524 23 13 22.5 0.0 0.00 0.00 0.00 19 1006.2
20260504010023 23 9 20.9 0.0 0.00 0.00 0.00 19 1006.3
20260504004522 23 340 19.3 0.0 0.00 0.00 0.00 19 1006.3
20260504003020 23 5 24.1 0.0 0.00 0.00 0.00 19 1006.5
20260504001520 24 338 24.1 0.0 0.00 0.00 0.00 18 1006.6
20260504000020 24 344 22.5 0.0 0.00 0.00 0.00 18 1006.7
20260503234521 24 344 19.3 0.0 0.00 0.00 0.00 17 1006.7
20260503233017 25 327 16.1 0.0 0.00 0.00 0.00 17 1006.7
20260503231520 25 319 14.5 0.0 0.00 0.00 0.00 17 1006.8
20260503230017 25 264 12.9 0.0 0.00 0.00 0.00 16 1007.1
20260503224513 25 338 17.7 0.0 0.00 0.00 0.00 16 1007.2
20260503223011 24 331 16.1 0.0 0.00 0.00 0.00 16 1007.4
20260503221508 24 289 19.3 0.0 0.00 0.00 0.00 16 1007.8
20260503220006 24 263 12.9 0.0 0.00 0.00 0.00 17 1008.0
20260503214518 23 296 16.1 0.0 0.00 0.00 0.00 17 1008.0
20260503213002 23 300 14.5 0.0 0.00 0.00 0.00 17 1008.4
20260503211613 23 282 19.3 0.0 0.00 0.00 0.00 16 1008.8
20260503210057 23 254 17.7 0.0 0.00 0.00 0.00 17 1009.0
20260503204557 23 298 12.9 0.0 0.00 0.00 0.00 16 1009.0
20260503203053 23 235 12.9 0.0 0.00 0.00 0.00 18 1009.3
20260503201550 23 329 12.9 0.0 0.00 0.00 0.00 19 1009.6
20260503200056 22 315 12.9 0.0 0.00 0.00 0.00 20 1009.8
20260503194545 22 322 12.9 0.0 0.00 0.00 0.00 21 1010.0
20260503193055 22 302 14.5 0.0 0.00 0.00 0.00 21 1010.2
20260503191544 22 297 9.7 0.0 0.00 0.00 0.00 21 1010.4
20260503190041 22 278 14.5 0.0 0.00 0.00 0.00 20 1010.6
20260503184546 21 302 16.1 0.0 0.00 0.00 0.00 22 1010.8
20260503183040 21 336 14.5 0.0 0.00 0.00 0.00 22 1010.9
20260503181531 21 310 17.7 0.0 0.00 0.00 0.00 21 1011.1
20260503180043 21 277 16.1 0.0 0.00 0.00 0.00 22 1011.1
20260503174541 21 331 14.5 0.0 0.00 0.00 0.00 24 1011.4
20260503173035 20 296 14.5 0.0 0.00 0.00 0.00 24 1011.5
20260503171520 20 282 12.9 0.0 0.00 0.00 0.00 27 1011.5